Flag for Guyana Weather past 2 weeks in Linden, Guyana

Now
73 °F

Partly cloudy.


Feels Like: 68 °F
Forecast: 71 / 86 °F
Wind: No wind

Location: Georgetown/Cheddi Jagan International Airport

Current Time: Feb 27, 2015 at 1:11:03 AM

Latest Report: Feb 27, 2015 at 12:00 AM


Visibility: N/A

Pressure: 29.92 "Hg

Humidity: 100%

Dew point: 73 °F

Location of LindenLocation

Historic Weather in Linden — Graph

°F

Linden temperature yesterday

Maximum temperature yesterday: 79 °F (at 2:00 PM)
Minimum temperature yesterday: 72 °F (at 5:00 AM)
Average temperature yesterday: 75 °F

Past Weeks' High & Low Weather Summary

 TemperatureHumidityPressure
High90 °F (Feb 12, 1:00 PM)100% (Feb 11, 11:00 PM)30.01 "Hg (Feb 11, 11:00 PM)
Low68 °F (Feb 19, 5:00 AM)52% (Feb 20, 12:00 PM)29.80 "Hg (Feb 19, 3:00 PM)
Average78 °F85%29.91 "Hg
* Reported Feb 11 11:00 PM — Feb 26 11:00 PM, Linden, Weather by CustomWeather, © 2015

Note: Actual official high and low records may vary slightly from our data, if they occured in-between our weather recording intervals... More about our weather records

Advertising

Linden weather history for previous 24 hours

 ConditionsComfort  
Time TempWeatherWind HumidityBarometerVisibility
11:00 PM
Thu, Feb 26
73 °FPassing clouds.No wind100%29.95 "HgN/A
10:00 PM75 °FPassing clouds.No wind94%29.92 "HgN/A
9:00 PM75 °FPassing clouds.No wind94%29.92 "HgN/A
8:00 PM75 °FMostly cloudy.No wind94%29.89 "Hg6 mi
7:00 PM75 °FRain. Mostly cloudy.5 mph94%29.89 "Hg5 mi
6:00 PM75 °FThunderstorms. More clouds than sun.7 mph94%29.86 "Hg5 mi
5:00 PM75 °FThunderstorms. More clouds than sun.7 mph100%29.86 "Hg5 mi
4:00 PM75 °FThunderstorms. Partly sunny.14 mph100%29.86 "Hg6 mi
3:00 PM77 °FClear.5 mph94%29.86 "HgN/A
2:00 PM79 °FCloudy.5 mph89%29.86 "Hg6 mi
1:00 PM77 °FCloudy.5 mph94%29.92 "Hg6 mi
12:00 PM73 °FThunderstorms. Cloudy.7 mph100%29.92 "Hg5 mi
11:00 AM73 °FThunderstorms. Cloudy.No wind100%29.95 "Hg5 mi
10:00 AM73 °FThunderstorms. Cloudy.7 mph100%29.98 "Hg3 mi
9:00 AM75 °FRain. Cloudy.5 mph94%29.98 "Hg3 mi
8:00 AM75 °FRain. Mostly cloudy.5 mph94%29.95 "Hg4 mi
7:00 AM75 °FRain showers. Cloudy.2 mph100%29.92 "Hg5 mi
6:00 AM73 °FFog.2 mph100%29.89 "Hg3 mi
5:00 AM72 °FOvercast.No wind100%29.89 "Hg6 mi
4:00 AM73 °FPartly cloudy.5 mph94%29.89 "Hg6 mi
2:00 AM73 °FLight rain. Overcast.2 mph100%29.89 "Hg4 mi
1:00 AM75 °FRain. Overcast.5 mph94%29.92 "Hg3 mi
Weather by CustomWeather, © 2015

See weather overviewHow to use our weather pages